Regional Weather Roundup
Issued by NWS Albany, NY

Home | Current Version | Previous Version | Text Only | Print | Product List | Glossary On
Versions: 1 2 3 4 5 6 7 8 9 10 11 12 13 14 15 16 17 18 19 20 21 22 23 24 25 26 27
000
ASUS41 KALY 290310
RWRALY

NEW YORK STATE HOURLY WEATHER ROUNDUP
NATIONAL WEATHER SERVICE ALBANY NY
1100 PM EDT TUE MAR 28 2017

NOTE: "FAIR" INDICATES FEW OR NO CLOUDS BELOW 12,000 FEET WITH NO
SIGNIFICANT WEATHER AND/OR NO OBSTRUCTIONS TO VISIBILITY.

NYZ032-033-038>043-046>054-057>066-NYZ062>081-082-084-290400-
EAST


CITY           SKY/WX    TMP DP  RH WIND       PRES   REMARKS
ALBANY         LGT RAIN  41  37  86 N9        30.01R FOG
GLENS FALLS    CLOUDY    39  37  92 N3        30.01S
POUGHKEEPSIE   LGT RAIN  42  42 100 CALM      29.94S VSB 1
NEWBURGH       CLOUDY    43  43 100 CALM      29.94F FOG
MONTGOMERY     CLOUDY    43  42  97 CALM      29.93R FOG
WHITE PLAINS   CLOUDY    44  41  89 NE6       29.91F FOG
ISLIP          CLOUDY    42  42 100 NE9       29.91F
NEW YORK CITY  LGT RAIN  43  40  89 NE8       29.93F FOG
CENTRAL PARK   CLOUDY    44  43  96 NE6       29.95S
$$

NYZ005>009-017-018-044>046-055-056-290400-
CENTRAL


CITY           SKY/WX    TMP DP  RH WIND       PRES   REMARKS
FULTON         MOCLDY    40  34  79 N7        30.10S
SYRACUSE       CLOUDY    40  36  86 N8        30.09S WCI  34
ROME           CLOUDY    40  36  86 N7        30.07R
ELMIRA         CLOUDY    42  38  85 NE5       30.07R
BINGHAMTON     CLOUDY    38  37  97 N15       30.02R WCI  29
MONTICELLO     CLOUDY    45  45 100 NW8       29.96R
$$

NYZ026>034-041>043-087-290400-
NORTH


CITY           SKY/WX    TMP DP  RH WIND       PRES   REMARKS
WATERTOWN      CLOUDY    39  36  89 N3        30.10S
FORT DRUM      NOT AVBL
MASSENA        CLOUDY    40  34  79 NW7       30.10R
SARANAC LAKE   CLOUDY    35  35 100 NW3       30.01S
PLATTSBURGH    LGT RAIN  35  34  96 CALM      30.06S VSB 1
$$

NYZ001>004-010>016-019>021-085-290400-
WEST


CITY           SKY/WX    TMP DP  RH WIND       PRES   REMARKS
NIAGARA FALLS  CLOUDY    44  35  70 N8        30.14R
BUFFALO        CLOUDY    42  36  79 N8        30.14R
DUNKIRK        CLOUDY    40  37  89 CALM      30.15R
JAMESTOWN      CLOUDY    39  36  87 N8        30.10R WCI  34
WELLSVILLE     CLOUDY    41  39  93 N6        30.07R FOG
ROCHESTER      CLOUDY    43  41  93 E7        30.12R
PENN YAN       CLOUDY    41  36  82 N8        30.10R
$$

             KEY
       WCI = WIND CHILL INDEX
       VSB = VISIBILITY
       HX  = HEAT INDEX
$$




USA.gov is the U.S. government's official web portal to all federal, state and local government web resources and services.